EW1065 Weather Reports


Display with metric or nautical units.
time (UTC)temp
F
wind
direction
speed
MPH
gust
MPH
rain 1hr
in
rain 24hr
in
rain mn
in
humidity
%
barometer
mb
20260902005518 77 0.0 0.0 0.00 0.00 0.00 89 1017.3
20260902004520 78 0.0 0.0 0.00 0.00 0.00 88 1017.2
20260902003600 79 0.0 0.0 0.00 0.00 0.00 87 1017.2
20260902002520 79 0.0 0.0 0.00 0.00 0.00 86 1017.1
20260902001520 80 0.0 0.0 0.00 0.00 0.00 86 1017.1
20260902000520 81 0.0 0.0 0.00 0.00 0.00 85 1017.2
20260901235520 82 0.0 0.0 0.00 0.00 0.00 83 1017.3
20260901234600 83 0.0 0.0 0.00 0.00 0.00 81 1017.4
20260901233520 84 0.0 0.0 0.00 0.00 0.00 80 1017.4
20260901232520 85 0.0 0.0 0.00 0.00 0.00 77 1017.6
20260901231520 86 0.0 0.0 0.00 0.00 0.00 75 1017.5
20260901230600 89 0.0 0.0 0.00 0.00 0.00 71 1017.7
20260901225520 93 0.0 0.0 0.00 0.00 0.00 66 1017.7
20260901224518 96 0.0 0.0 0.00 0.00 0.00 62 1017.9
20260901223520 96 0.0 0.0 0.00 0.00 0.00 59 1017.9
20260901222520 97 0.0 0.0 0.00 0.00 0.00 57 1017.8
20260901220520 95 0.0 0.0 0.00 0.00 0.00 58 1017.7
20260901215520 95 0.0 0.0 0.00 0.00 0.00 56 1017.6
20260901214600 97 0.0 0.0 0.00 0.00 0.00 52 1017.6
20260901213520 99 0.0 0.0 0.00 0.00 0.00 45 1017.7
20260901212520 97 0.0 0.0 0.00 0.00 0.00 51 1017.6
20260901211520 96 0.0 1.0 0.00 0.00 0.00 46 1017.6
20260901210520 97 0.0 3.0 0.00 0.00 0.00 46 1017.7
20260901205520 98 0.0 3.0 0.00 0.00 0.00 45 1017.9
20260901204520 98 0.0 2.0 0.00 0.00 0.00 44 1017.9
20260901203520 98 0.0 2.0 0.00 0.00 0.00 45 1018.0
20260901202520 97 0.0 1.0 0.00 0.00 0.00 49 1018.1
20260901200520 95 0.0 1.0 0.00 0.00 0.00 51 1018.3
20260901195520 95 0.0 3.0 0.00 0.00 0.00 51 1018.3
20260901194520 95 0.0 3.0 0.00 0.00 0.00 54 1018.3
20260901193520 95 0.0 1.0 0.00 0.00 0.00 56 1018.5
20260901192520 96 0.0 2.0 0.00 0.00 0.00 54 1018.5
20260901191520 96 338 1.0 3.0 0.00 0.00 0.00 53 1018.6
20260901190520 96 0.0 4.0 0.00 0.00 0.00 53 1018.7
20260901185520 95 338 1.0 4.0 0.00 0.00 0.00 51 1018.9
20260901184558 95 248 1.0 2.0 0.00 0.00 0.00 51 1019.0
20260901183520 94 0.0 2.0 0.00 0.00 0.00 50 1019.1
20260901182520 94 0.0 1.0 0.00 0.00 0.00 54 1019.2
20260901181520 94 0.0 2.0 0.00 0.00 0.00 57 1019.4
20260901180520 94 0.0 3.0 0.00 0.00 0.00 58 1019.4
20260901175600 93 293 1.0 4.0 0.00 0.00 0.00 60 1019.4
20260901174600 93 338 1.0 5.0 0.00 0.00 0.00 59 1019.5
20260901173600 93 270 1.0 4.0 0.00 0.00 0.00 59 1019.6
20260901172520 93 225 1.0 3.0 0.00 0.00 0.00 60 1019.7
20260901171520 91 203 1.0 4.0 0.00 0.00 0.00 61 1019.7
20260901170520 90 203 1.0 5.0 0.00 0.00 0.00 65 1019.8
20260901165521 90 293 1.0 4.0 0.00 0.00 0.00 60 1019.8
20260901164520 91 338 1.0 6.0 0.00 0.00 0.00 61 1019.8
20260901163558 92 315 1.0 4.0 0.00 0.00 0.00 63 1019.8
20260901162520 91 225 1.0 4.0 0.00 0.00 0.00 65 1019.9
20260901161520 91 315 1.0 3.0 0.00 0.00 0.00 63 1019.9
20260901160520 90 225 1.0 3.0 0.00 0.00 0.00 65 1020.1
20260901155520 90 248 1.0 2.0 0.00 0.00 0.00 65 1020.1
20260901154520 89 248 1.0 2.0 0.00 0.00 0.00 66 1020.2
20260901153520 89 315 1.0 9.0 0.00 0.00 0.00 66 1020.1
20260901152520 89 0.0 0.0 0.00 0.00 0.00 68 1020.1
20260901151600 88 0.0 0.0 0.00 0.00 0.00 69 1020.1
20260901150520 87 0.0 0.0 0.00 0.00 0.00 72 1020.3
20260901145640 85 0.0 0.0 0.00 0.00 0.00 76 1020.4
20260901144600 84 0.0 0.0 0.00 0.00 0.00 79 1020.3
20260901143520 83 0.0 0.0 0.00 0.00 0.00 82 1020.2
20260901142558 81 0.0 0.0 0.00 0.00 0.00 84 1020.2
20260901141520 80 0.0 0.0 0.00 0.00 0.00 87 1020.1
20260901140520 78 0.0 0.0 0.00 0.00 0.00 91 1020.3
20260901135520 76 0.0 0.0 0.00 0.00 0.00 98 1020.2
20260901134520 75 0.0 0.0 0.00 0.00 0.00 100 1020.2
20260901133521 74 0.0 0.0 0.00 0.00 0.00 100 1020.2
20260901132520 73 0.0 0.0 0.00 0.00 0.00 100 1020.2
20260901131600 73 0.0 0.0 0.00 0.00 0.00 100 1020.2
20260901130520 72 0.0 0.0 0.00 0.00 0.00 100 1020.3
20260901125520 72 0.0 0.0 0.00 0.00 0.00 100 1020.3
20260901124518 71 0.0 0.0 0.00 0.00 0.00 100 1020.2
20260901123520 70 0.0 0.0 0.00 0.00 0.00 100 1020.2
20260901122520 69 0.0 0.0 0.00 0.00 0.00 100 1020.2
20260901121520 69 0.0 0.0 0.00 0.00 0.00 99 1020.3
20260901120520 68 0.0 0.0 0.00 0.00 0.00 99 1020.2
20260901115520 68 0.0 0.0 0.00 0.00 0.00 99 1020.0
20260901114520 67 0.0 0.0 0.00 0.00 0.00 99 1019.9
20260901113520 67 0.0 0.0 0.00 0.00 0.00 99 1019.7
20260901112520 67 0.0 0.0 0.00 0.00 0.00 99 1019.7
20260901111520 67 0.0 0.0 0.00 0.00 0.00 99 1019.5
20260901110518 67 0.0 0.0 0.00 0.00 0.00 99 1019.3
20260901105520 68 0.0 0.0 0.00 0.00 0.00 99 1019.2
20260901104600 68 0.0 0.0 0.00 0.00 0.00 99 1019.3
20260901103520 68 0.0 0.0 0.00 0.00 0.00 99 1019.2
20260901102520 68 0.0 0.0 0.00 0.00 0.00 99 1019.2
20260901101520 68 0.0 0.0 0.00 0.00 0.00 99 1019.1
20260901100520 68 0.0 0.0 0.00 0.00 0.00 99 1019.1
20260901095558 68 0.0 0.0 0.00 0.00 0.00 99 1018.9
20260901094520 68 0.0 0.0 0.00 0.00 0.00 99 1018.8
20260901093520 69 0.0 0.0 0.00 0.00 0.00 99 1018.7
20260901092520 69 0.0 0.0 0.00 0.00 0.00 99 1018.7
20260901091518 69 0.0 0.0 0.00 0.00 0.00 99 1018.6
20260901090600 69 0.0 0.0 0.00 0.00 0.00 99 1018.4
20260901085520 69 0.0 0.0 0.00 0.00 0.00 99 1018.4
20260901084540 69 0.0 0.0 0.00 0.00 0.00 99 1018.4
20260901083520 69 0.0 0.0 0.00 0.00 0.00 99 1018.4
20260901082518 69 0.0 0.0 0.00 0.00 0.00 98 1018.2
20260901081520 69 0.0 0.0 0.00 0.00 0.00 98 1018.2
20260901080520 69 0.0 0.0 0.00 0.00 0.00 98 1018.0
20260901075520 69 0.0 0.0 0.00 0.00 0.00 98 1018.0
20260901074520 69 0.0 0.0 0.00 0.00 0.00 98 1018.1
20260901073520 69 0.0 0.0 0.00 0.00 0.00 98 1018.1
20260901072520 69 0.0 0.0 0.00 0.00 0.00 98 1018.1
20260901071520 70 0.0 0.0 0.00 0.00 0.00 98 1018.3
20260901070520 70 0.0 0.0 0.00 0.00 0.00 98 1018.4
20260901065600 70 0.0 0.0 0.00 0.00 0.00 98 1018.6
20260901064520 70 0.0 0.0 0.00 0.00 0.00 98 1018.6
20260901063518 70 0.0 0.0 0.00 0.00 0.00 98 1018.7
20260901062520 71 0.0 0.0 0.00 0.00 0.00 98 1018.8
20260901061537 71 0.0 0.0 0.00 0.00 0.00 98 1018.8
20260901060520 71 0.0 0.0 0.00 0.00 0.00 98 1018.9
20260901055520 71 0.0 0.0 0.00 0.00 0.00 98 1018.9
20260901054520 71 0.0 0.0 0.00 0.00 0.00 98 1018.8
20260901053518 71 0.0 0.0 0.00 0.00 0.00 98 1018.9
20260901052520 71 0.0 0.0 0.00 0.00 0.00 98 1019.0
20260901051520 71 0.0 0.0 0.00 0.00 0.00 97 1019.1
20260901050518 71 0.0 0.0 0.00 0.00 0.00 97 1019.1
20260901045520 71 0.0 0.0 0.00 0.00 0.00 97 1019.1
20260901044520 71 0.0 0.0 0.00 0.00 0.00 97 1019.0
20260901043520 71 0.0 0.0 0.00 0.00 0.00 97 1019.0
20260901042518 72 0.0 0.0 0.00 0.00 0.00 97 1019.0
20260901041520 72 0.0 0.0 0.00 0.00 0.00 97 1019.0
20260901040521 72 0.0 0.0 0.00 0.00 0.00 96 1019.0
20260901035520 72 0.0 0.0 0.00 0.00 0.00 96 1018.9
20260901034520 72 0.0 0.0 0.00 0.00 0.00 96 1018.9
20260901033520 72 0.0 0.0 0.00 0.00 0.00 96 1018.8
20260901032520 72 0.0 0.0 0.00 0.00 0.00 96 1018.8
20260901031518 73 0.0 0.0 0.00 0.00 0.00 95 1018.8
20260901030520 73 0.0 0.0 0.00 0.00 0.00 95 1018.8
20260901025518 73 0.0 0.0 0.00 0.00 0.00 95 1018.7
20260901024520 73 0.0 0.0 0.00 0.00 0.00 95 1018.8
20260901023520 73 0.0 0.0 0.00 0.00 0.00 95 1018.7
20260901022520 73 0.0 0.0 0.00 0.00 0.00 94 1018.6
20260901020520 74 0.0 0.0 0.00 0.00 0.00 94 1018.4
20260901015520 74 0.0 0.0 0.00 0.00 0.00 93 1018.2
20260901014518 74 0.0 0.0 0.00 0.00 0.00 93 1018.1
20260901013520 75 0.0 0.0 0.00 0.00 0.00 92 1018.0
20260901012520 75 0.0 0.0 0.00 0.00 0.00 92 1017.8
20260901011520 76 0.0 0.0 0.00 0.00 0.00 91 1017.8
20260901010520 76 0.0 0.0 0.00 0.00 0.00 90 1017.6